EA8CHC Sevilla ES current weather conditions

sailwx.info

Wind from 259 at 4 knots gusting 8

Air temperature 37.8° C
Dewpoint 16.6° C

Last reported at 2015-Jul-05 18:47 UTC.
Time now 2015-Jul-05 19:25 UTC

Location: N 37°26' W 006°03'.
View on Google Maps.

See reports from other nearby stations

  
Tides and Currents Weather Stations Pressure Air Temp Water Temp Dewpoint Dewpoint Depression Visibility Wind Speed Wind Dir Waves Ship Positions
date/time (UTC)wind fromknots sea level pressurealtimeterstation pressurevisibilityair tempwater tempwave heightnotes
2015-Jul-05 18:47 259 4 gusting 8 37.8
2015-Jul-05 18:42 229 3 gusting 8 38.3
2015-Jul-05 18:37 253 3 gusting 8 38.3
2015-Jul-05 18:32 245 3 gusting 8 38.3
2015-Jul-05 18:27 226 4 gusting 11 38.3
2015-Jul-05 18:22 224 5 gusting 11 38.3
2015-Jul-05 18:17 231 4 gusting 9 38.3
2015-Jul-05 18:12 222 3 gusting 11 38.3
2015-Jul-05 18:07 199 4 gusting 11 38.3
2015-Jul-05 18:02 184 5 gusting 11 38.3
2015-Jul-05 17:57 209 5 gusting 11 38.3
2015-Jul-05 17:52 215 5 gusting 11 38.3
2015-Jul-05 17:47 253 5 gusting 11 38.3
2015-Jul-05 17:42 197 6 gusting 11 37.8
2015-Jul-05 17:37 212 5 gusting 11 37.8
2015-Jul-05 17:32 185 4 gusting 12 37.8
2015-Jul-05 17:27 198 5 gusting 13 38.3
2015-Jul-05 17:22 150 5 gusting 13 37.8
2015-Jul-05 17:17 194 6 gusting 13 38.3
2015-Jul-05 17:12 180 5 gusting 11 38.3
2015-Jul-05 17:07 142 5 gusting 11 38.3
2015-Jul-05 17:02 153 6 gusting 11 37.8
2015-Jul-05 16:57 150 6 gusting 11 37.8
2015-Jul-05 16:52 194 6 gusting 11 37.8
2015-Jul-05 16:47 207 5 gusting 10 37.8
2015-Jul-05 16:42 219 5 gusting 10 37.8
2015-Jul-05 16:37 189 6 gusting 11 37.8
2015-Jul-05 16:32 236 6 gusting 11 37.8
2015-Jul-05 16:27 244 6 gusting 12 37.8
2015-Jul-05 16:22 188 6 gusting 13 37.8
2015-Jul-05 16:17 187 6 gusting 13 37.8
2015-Jul-05 16:12 207 7 gusting 12 37.8
2015-Jul-05 16:07 184 7 gusting 12 37.8
2015-Jul-05 16:02 161 7 gusting 14 37.8
2015-Jul-05 15:57 160 6 gusting 14 37.8
2015-Jul-05 15:52 146 7 gusting 17 37.8
2015-Jul-05 15:47 132 8 gusting 17 37.8
2015-Jul-05 15:42 155 8 gusting 15 37.8
2015-Jul-05 15:37 121 8 gusting 15 37.8
2015-Jul-05 15:32 171 7 gusting 14 37.8
2015-Jul-05 15:27 129 6 gusting 14 38.3
2015-Jul-05 15:22 128 7 gusting 16 38.3
2015-Jul-05 15:17 115 7 gusting 16 37.8
2015-Jul-05 15:12 142 5 gusting 16 37.8
2015-Jul-05 15:07 167 3 gusting 11 37.8
2015-Jul-05 15:02 208 3 gusting 11 37.8
2015-Jul-05 14:57 141 4 gusting 11 38.3
2015-Jul-05 14:52 207 5 gusting 11 37.8
2015-Jul-05 14:47 147 5 gusting 11 37.8
2015-Jul-05 14:42 155 4 gusting 10 37.8
2015-Jul-05 14:37 203 3 gusting 7 37.8
2015-Jul-05 14:32 268 3 gusting 7 37.8
2015-Jul-05 14:27 143 4 gusting 7 37.8
2015-Jul-05 14:22 165 2 gusting 8 38.3
2015-Jul-05 14:17 229 2 gusting 10 38.3
2015-Jul-05 14:12 191 4 gusting 10 37.8
2015-Jul-05 14:07 202 4 gusting 11 37.8
2015-Jul-05 14:02 221 3 gusting 11 37.8
2015-Jul-05 13:57 223 3 gusting 13 37.8
2015-Jul-05 13:52 167 4 gusting 13 37.8
2015-Jul-05 13:47 159 5 gusting 11 37.8
2015-Jul-05 13:42 238 3 gusting 9 37.8
2015-Jul-05 13:37 245 1 gusting 9 37.8
2015-Jul-05 13:32 213 2 gusting 9 37.2
2015-Jul-05 13:27 211 3 gusting 9 37.2
2015-Jul-05 13:22 185 3 gusting 8 37.2
2015-Jul-05 13:17 304 2 gusting 15 36.7
2015-Jul-05 13:12 210 3 gusting 15 36.7
2015-Jul-05 13:07 168 6 gusting 15 36.7
2015-Jul-05 13:02 150 4 gusting 15 36.7
2015-Jul-05 12:57 115 2 gusting 6 36.7
2015-Jul-05 12:52 201 1 gusting 6 36.1
2015-Jul-05 12:47 220 1 gusting 6 36.1
2015-Jul-05 12:42 171 0 gusting 6 35.6
2015-Jul-05 12:37 094 1 gusting 6 35.6
2015-Jul-05 12:32 094 3 gusting 6 35.6
2015-Jul-05 12:27 052 2 gusting 6 35.6
2015-Jul-05 12:22 172 1 gusting 6 35.6
2015-Jul-05 12:17 153 1 gusting 6 35.6
2015-Jul-05 12:12 049 1 gusting 6 35.0
2015-Jul-05 12:07 096 2 gusting 6 35.0
2015-Jul-05 12:02 058 2 gusting 6 34.4
2015-Jul-05 11:57 042 2 gusting 5 34.4
2015-Jul-05 11:52 088 1 gusting 3 35.0
2015-Jul-05 11:47 350 0 gusting 6 34.4
2015-Jul-05 11:42 257 0 gusting 6 34.4
2015-Jul-05 11:37 056 1 gusting 6 33.9
2015-Jul-05 11:32 103 2 gusting 6 33.9
2015-Jul-05 11:27 136 1 gusting 6 33.9
2015-Jul-05 11:22 217 1 gusting 7 33.3
2015-Jul-05 11:17 155 1 gusting 7 33.3
2015-Jul-05 11:12 094 2 gusting 7 33.3
2015-Jul-05 11:07 113 3 gusting 7 32.8
2015-Jul-05 11:02 127 2 gusting 5 32.8
2015-Jul-05 10:57 103 2 gusting 5 32.8
2015-Jul-05 10:52 178 2 gusting 5 32.8
2015-Jul-05 10:47 153 2 gusting 5 32.2
2015-Jul-05 10:42 079 2 gusting 5 32.2
2015-Jul-05 10:37 060 1 gusting 5 32.2
2015-Jul-05 10:32 073 1 gusting 5 32.2
2015-Jul-05 10:27 196 1 gusting 4 32.2
2015-Jul-05 10:22 140 1 gusting 6 31.7
2015-Jul-05 10:17 118 2 gusting 6 31.7
2015-Jul-05 10:12 123 2 gusting 6 31.7
2015-Jul-05 10:07 097 1 gusting 6 31.7
2015-Jul-05 10:02 107 2 gusting 6 31.1
2015-Jul-05 09:57 116 2 gusting 7 31.1
2015-Jul-05 09:52 095 2 gusting 7 31.1
2015-Jul-05 09:47 092 2 gusting 7 31.1
2015-Jul-05 09:42 140 1 gusting 9 31.1
2015-Jul-05 09:37 127 3 gusting 9 30.6
2015-Jul-05 09:32 125 3 gusting 9 30.6
2015-Jul-05 09:27 092 1 gusting 6 30.6
2015-Jul-05 09:22 042 2 gusting 6 30.0
2015-Jul-05 09:17 074 2 gusting 6 30.0
2015-Jul-05 09:12 101 2 gusting 6 30.0
2015-Jul-05 09:07 082 2 gusting 6 30.0
2015-Jul-05 09:02 108 2 gusting 6 29.4
2015-Jul-05 08:57 148 2 gusting 5 29.4
2015-Jul-05 08:52 077 1 gusting 5 29.4
2015-Jul-05 08:47 087 2 gusting 5 28.9
2015-Jul-05 08:42 062 2 gusting 5 28.9
2015-Jul-05 08:37 076 1 gusting 5 28.3
2015-Jul-05 08:32 067 2 gusting 5 28.3
2015-Jul-05 08:27 075 2 gusting 4 28.3
2015-Jul-05 08:22 082 1 gusting 4 28.3
2015-Jul-05 08:17 115 1 gusting 4 28.3
2015-Jul-05 08:12 090 0 gusting 4 28.3
2015-Jul-05 08:07 111 0 gusting 4 28.3
2015-Jul-05 08:02 092 0 gusting 4 28.3
2015-Jul-05 07:57 089 0 gusting 3 28.3
2015-Jul-05 07:52 090 0 gusting 3 28.3
2015-Jul-05 07:47 093 0 gusting 2 27.8
2015-Jul-05 07:42 036 0 gusting 2 28.3
2015-Jul-05 07:37 062 0 gusting 2 28.3
2015-Jul-05 07:32 28.3
2015-Jul-05 07:27 27.8
2015-Jul-05 07:22 27.8
2015-Jul-05 07:17 355 27.2
2015-Jul-05 07:12 340 0 gusting 3 27.2
2015-Jul-05 07:07 340 0 gusting 3 26.7
2015-Jul-05 07:02 348 0 gusting 3 26.7
2015-Jul-05 06:57 325 26.1
2015-Jul-05 06:52 319 0 gusting 3 26.1
2015-Jul-05 06:47 319 0 gusting 3 25.6
2015-Jul-05 06:42 348 25.6
2015-Jul-05 06:37 317 25.6
2015-Jul-05 06:32 317 0 gusting 3 25.6
2015-Jul-05 06:27 303 0 gusting 2 25.0
2015-Jul-05 06:22 303 0 gusting 2 25.0
2015-Jul-05 06:17 303 0 gusting 3 25.0
2015-Jul-05 06:12 303 0 gusting 3 25.0
2015-Jul-05 06:07 303 0 gusting 3 25.0
2015-Jul-05 06:02 303 0 gusting 2 25.0
2015-Jul-05 05:57 303 0 gusting 3 25.0
2015-Jul-05 05:52 302 0 gusting 3 25.0
2015-Jul-05 05:47 301 1 gusting 3 24.4
2015-Jul-05 05:42 297 0 gusting 2 24.4
2015-Jul-05 05:37 297 24.4
2015-Jul-05 05:32 297 24.4
2015-Jul-05 05:27 297 24.4
2015-Jul-05 05:22 297 24.4
2015-Jul-05 05:17 297 0 gusting 2 24.4
2015-Jul-05 05:12 297 24.4
2015-Jul-05 05:07 297 25.0
2015-Jul-05 05:02 297 25.0
2015-Jul-05 04:57 297 25.0
2015-Jul-05 04:52 297 25.0
2015-Jul-05 04:47 297 25.0
2015-Jul-05 04:42 297 25.0
2015-Jul-05 04:37 297 25.0
2015-Jul-05 04:32 297 25.0
2015-Jul-05 04:27 297 25.0
2015-Jul-05 04:22 297 0 gusting 2 25.0
2015-Jul-05 04:17 297 0 gusting 3 25.0
2015-Jul-05 04:12 297 25.0
2015-Jul-05 04:07 297 0 gusting 3 25.0
2015-Jul-05 04:02 297 1 gusting 3 25.0
2015-Jul-05 03:57 297 1 gusting 3 25.0
2015-Jul-05 03:52 297 0 gusting 2 25.0
2015-Jul-05 03:47 297 0 gusting 2 25.0
2015-Jul-05 03:42 297 0 gusting 2 25.6
2015-Jul-05 03:37 297 0 gusting 2 25.6
2015-Jul-05 03:32 297 0 gusting 2 25.6
2015-Jul-05 03:27 297 26.1
2015-Jul-05 03:22 297 26.1
2015-Jul-05 03:17 297 26.1
2015-Jul-05 03:12 297 26.1
2015-Jul-05 03:07 297 26.1
2015-Jul-05 03:02 297 26.1
2015-Jul-05 02:57 297 26.1
2015-Jul-05 02:52 299 26.1
2015-Jul-05 02:47 299 26.1
2015-Jul-05 02:42 299 26.1
2015-Jul-05 02:37 299 26.7
2015-Jul-05 02:32 302 26.7
2015-Jul-05 02:27 302 26.7
2015-Jul-05 02:22 302 26.7
2015-Jul-05 02:17 302 26.7
2015-Jul-05 02:12 302 26.7
2015-Jul-05 02:07 302 27.2
2015-Jul-05 02:02 302 27.2
2015-Jul-05 01:57 302 27.2
2015-Jul-05 01:52 302 0 gusting 4 27.2
2015-Jul-05 01:47 302 0 gusting 4 27.2
2015-Jul-05 01:42 302 27.2
2015-Jul-05 01:37 238 27.2
2015-Jul-05 01:32 238 27.8
2015-Jul-05 01:27 238 27.8
2015-Jul-05 01:22 238 27.8
2015-Jul-05 01:17 238 27.8
2015-Jul-05 01:12 238 27.8
2015-Jul-05 01:07 288 27.8
2015-Jul-05 01:02 294 27.8
2015-Jul-05 00:57 294 27.8
2015-Jul-05 00:52 294 28.3
2015-Jul-05 00:47 204 28.3
2015-Jul-05 00:37 204 28.3
2015-Jul-05 00:32 204 28.9
2015-Jul-05 00:27 204 28.9
2015-Jul-05 00:22 204 0 gusting 6 29.4
2015-Jul-05 00:17 215 0 gusting 6 29.4
2015-Jul-05 00:12 240 1 gusting 6 29.4
2015-Jul-05 00:07 199 2 gusting 6 29.4
2015-Jul-05 00:02 226 2 gusting 6 29.4
2015-Jul-04 23:57 219 2 gusting 6 29.4
2015-Jul-04 23:52 254 1 gusting 5 29.4
2015-Jul-04 23:47 271 0 gusting 3 29.4
2015-Jul-04 23:42 244 29.4
2015-Jul-04 23:37 244 29.4
2015-Jul-04 23:32 244 29.4
2015-Jul-04 23:27 244 29.4
2015-Jul-04 23:22 244 0 gusting 3 29.4
2015-Jul-04 23:17 244 0 gusting 6 29.4
2015-Jul-04 23:12 244 1 gusting 6 29.4
2015-Jul-04 23:07 229 3 gusting 6 29.4
2015-Jul-04 23:02 271 3 gusting 6 29.4
2015-Jul-04 22:57 269 4 gusting 6 29.4
2015-Jul-04 22:52 252 3 gusting 6 29.4
2015-Jul-04 22:47 291 2 gusting 5 29.4
2015-Jul-04 22:42 269 1 gusting 6 29.4
2015-Jul-04 22:37 273 1 gusting 6 29.4
2015-Jul-04 22:32 259 2 gusting 5 29.4
2015-Jul-04 22:27 281 2 gusting 6 29.4
2015-Jul-04 22:22 268 2 gusting 7 29.4
2015-Jul-04 22:17 263 3 gusting 7 29.4
2015-Jul-04 22:12 239 3 gusting 7 29.4
2015-Jul-04 22:07 248 2 gusting 6 30.0
2015-Jul-04 22:02 234 1 gusting 5 30.0
2015-Jul-04 21:57 205 1 gusting 8 30.0
2015-Jul-04 21:52 230 2 gusting 8 30.0
2015-Jul-04 21:47 258 4 gusting 9 30.0
2015-Jul-04 21:42 265 5 gusting 10 30.0
2015-Jul-04 21:37 253 6 gusting 10 30.6
2015-Jul-04 21:32 256 6 gusting 10 30.6
2015-Jul-04 21:27 249 6 gusting 10 30.6
2015-Jul-04 21:22 266 5 gusting 10 30.6
2015-Jul-04 21:17 238 4 gusting 10 31.1
2015-Jul-04 21:12 295 4 gusting 10 31.1
2015-Jul-04 21:07 279 5 gusting 11 31.1
2015-Jul-04 21:02 247 5 gusting 11 31.1
2015-Jul-04 20:57 232 5 gusting 11 31.7
2015-Jul-04 20:52 243 6 gusting 13 31.7
2015-Jul-04 20:47 235 6 gusting 13 31.7
2015-Jul-04 20:42 257 5 gusting 13 32.2
2015-Jul-04 20:37 249 5 gusting 10 32.2
2015-Jul-04 20:32 245 5 gusting 10 32.2
2015-Jul-04 20:27 276 5 gusting 10 32.8
2015-Jul-04 20:22 236 4 gusting 10 32.8
2015-Jul-04 20:17 226 4 gusting 10 32.8
2015-Jul-04 20:12 232 4 gusting 9 33.3
2015-Jul-04 20:07 242 4 gusting 13 33.3
2015-Jul-04 20:02 223 6 gusting 13 33.3
2015-Jul-04 19:57 252 7 gusting 13 33.3
2015-Jul-04 19:52 281 7 gusting 13 33.9
2015-Jul-04 19:47 263 6 gusting 11 33.9
2015-Jul-04 19:42 256 6 gusting 12 34.4
2015-Jul-04 19:37 274 6 gusting 12 34.4
2015-Jul-04 19:32 265 6 gusting 12 34.4
2015-Jul-04 19:27 247 5 gusting 10 35.0
2015-Jul-04 19:22 242 4 gusting 10 35.0
2015-Jul-04 19:17 233 4 gusting 10 35.6
2015-Jul-04 19:12 259 4 gusting 10 35.6
2015-Jul-04 19:07 247 3 gusting 9 35.6
2015-Jul-04 19:02 257 3 gusting 9 35.6
2015-Jul-04 18:57 238 5 gusting 11 35.6
2015-Jul-04 18:52 227 5 gusting 12 36.1
2015-Jul-04 18:47 261 6 gusting 12 36.1
2015-Jul-04 18:42 236 6 gusting 12 36.1
2015-Jul-04 18:37 211 6 gusting 12 36.1
2015-Jul-04 18:32 257 4 gusting 9 36.7
2015-Jul-04 18:27 225 6 gusting 9 36.7
2015-Jul-04 18:22 236 5 gusting 9 36.7
2015-Jul-04 18:17 207 5 gusting 9 36.7
2015-Jul-04 18:12 223 5 gusting 9 36.7
2015-Jul-04 18:07 235 4 gusting 8 37.2
2015-Jul-04 18:02 219 2 gusting 8 37.2
2015-Jul-04 17:57 241 1 gusting 6 37.2
2015-Jul-04 17:52 239 2 gusting 6 37.2
2015-Jul-04 17:47 258 3 gusting 6 37.2
2015-Jul-04 17:42 242 2 gusting 6 37.2
2015-Jul-04 17:37 195 1 gusting 5 37.8
2015-Jul-04 17:32 279 1 gusting 4 37.8
2015-Jul-04 17:27 306 0 gusting 5 37.8
2015-Jul-04 17:22 215 0 gusting 5 37.8
2015-Jul-04 17:17 229 1 gusting 5 37.2
2015-Jul-04 17:12 222 0 gusting 5 37.2
2015-Jul-04 17:07 111 0 gusting 6 36.7
2015-Jul-04 17:02 113 0 gusting 6 36.7
2015-Jul-04 16:57 111 0 gusting 6 36.7
2015-Jul-04 16:52 196 1 gusting 6 36.7
2015-Jul-04 16:47 122 2 gusting 9 36.7
2015-Jul-04 16:42 161 1 gusting 9 36.7
2015-Jul-04 16:37 150 3 gusting 9 36.7
2015-Jul-04 16:32 184 4 gusting 9 36.7
2015-Jul-04 16:27 117 4 gusting 9 36.1
2015-Jul-04 16:22 154 3 gusting 9 36.1
2015-Jul-04 16:17 151 2 gusting 10 36.1
2015-Jul-04 16:12 082 4 gusting 10 35.6
2015-Jul-04 16:07 157 5 gusting 10 36.1
2015-Jul-04 16:02 146 4 gusting 9 36.1
2015-Jul-04 15:57 159 4 gusting 12 36.1
2015-Jul-04 15:52 120 4 gusting 12 35.6
2015-Jul-04 15:47 148 5 gusting 13 35.6
2015-Jul-04 15:42 199 6 gusting 13 35.6
2015-Jul-04 15:37 205 6 gusting 13 35.6
2015-Jul-04 15:32 146 6 gusting 14 35.6
2015-Jul-04 15:27 129 6 gusting 14 35.6
2015-Jul-04 15:22 195 7 gusting 14 35.6
2015-Jul-04 15:17 109 9 gusting 13 35.6
2015-Jul-04 15:12 168 8 gusting 14 35.6
2015-Jul-04 15:07 163 7 gusting 14 35.6
2015-Jul-04 15:02 158 6 gusting 14 35.6
2015-Jul-04 14:57 130 6 gusting 14 35.6
2015-Jul-04 14:52 163 6 gusting 14 35.6
2015-Jul-04 14:47 148 6 gusting 13 35.6
2015-Jul-04 14:42 144 6 gusting 13 35.6
2015-Jul-04 14:37 144 6 gusting 13 35.6
2015-Jul-04 14:32 146 6 gusting 12 35.6
2015-Jul-04 14:27 175 6 gusting 12 35.6
2015-Jul-04 14:22 144 5 gusting 10 35.6
2015-Jul-04 14:17 151 5 gusting 13 35.6
2015-Jul-04 14:12 150 6 gusting 13 36.1
2015-Jul-04 14:07 178 6 gusting 13 36.1
2015-Jul-04 14:02 144 5 gusting 12 36.1
2015-Jul-04 13:57 128 5 gusting 12 35.6
2015-Jul-04 13:52 139 4 gusting 7 36.1
2015-Jul-04 13:47 138 3 gusting 7 36.1
2015-Jul-04 13:42 148 2 gusting 7 35.6
2015-Jul-04 13:37 338 3 gusting 9 35.6
2015-Jul-04 13:32 236 4 gusting 9 35.6
2015-Jul-04 13:27 234 5 gusting 10 35.6
2015-Jul-04 13:22 240 5 gusting 10 35.6
2015-Jul-04 13:17 259 4 gusting 10 35.6
2015-Jul-04 13:12 242 1 gusting 6 35.6
2015-Jul-04 13:07 210 0 gusting 7 35.6
2015-Jul-04 13:02 298 2 gusting 7 35.6
2015-Jul-04 12:57 242 3 gusting 6 35.6
2015-Jul-04 12:52 227 2 gusting 6 35.0
2015-Jul-04 12:47 277 2 gusting 5 35.0
2015-Jul-04 12:42 093 1 gusting 6 34.4
2015-Jul-04 12:37 116 1 gusting 6 34.4
2015-Jul-04 12:32 074 1 gusting 4 34.4
2015-Jul-04 12:27 124 1 gusting 4 34.4
2015-Jul-04 12:22 271 1 gusting 6 34.4
2015-Jul-04 12:17 327 2 gusting 6 34.4
2015-Jul-04 12:12 159 1 gusting 6 34.4
2015-Jul-04 12:07 149 0 gusting 5 34.4
2015-Jul-04 12:02 138 0 gusting 5 33.9
2015-Jul-04 11:57 097 0 gusting 6 33.3
2015-Jul-04 11:52 069 1 gusting 6 33.3
2015-Jul-04 11:47 117 2 gusting 5 33.3
2015-Jul-04 11:42 078 1 gusting 3 33.3
2015-Jul-04 11:37 057 0 gusting 3 33.3
2015-Jul-04 11:32 329 0 gusting 3 33.3
2015-Jul-04 11:27 198 0 gusting 3 32.8
2015-Jul-04 11:22 199 0 gusting 4 32.8
2015-Jul-04 11:17 192 0 gusting 4 32.8
2015-Jul-04 11:12 202 0 gusting 5 32.2
2015-Jul-04 11:07 212 0 gusting 5 32.2
2015-Jul-04 11:02 269 0 gusting 5 31.7
2015-Jul-04 10:57 151 1 gusting 4 31.7
2015-Jul-04 10:52 063 1 gusting 4 31.7
2015-Jul-04 10:47 105 1 gusting 6 31.1
2015-Jul-04 10:42 066 1 gusting 6 31.1
2015-Jul-04 10:37 090 1 gusting 6 30.6
2015-Jul-04 10:32 119 1 gusting 6 30.6
2015-Jul-04 10:27 108 2 gusting 6 30.0
2015-Jul-04 10:22 074 3 gusting 6 30.0
2015-Jul-04 10:17 108 3 gusting 6 30.0
2015-Jul-04 10:12 124 2 gusting 6 30.0
2015-Jul-04 10:07 112 2 gusting 6 29.4
2015-Jul-04 10:02 076 2 gusting 6 29.4
2015-Jul-04 09:57 100 2 gusting 6 29.4
2015-Jul-04 09:52 104 3 gusting 6 29.4
2015-Jul-04 09:47 109 2 gusting 6 29.4
2015-Jul-04 09:42 117 2 gusting 5 28.9
2015-Jul-04 09:37 098 1 gusting 5 28.9
2015-Jul-04 09:32 092 1 gusting 5 28.3
2015-Jul-04 09:27 091 1 gusting 6 28.3
2015-Jul-04 09:22 107 1 gusting 6 27.8
2015-Jul-04 09:17 133 2 gusting 6 27.8
2015-Jul-04 09:12 064 1 gusting 5 27.8
2015-Jul-04 09:07 082 1 gusting 5 27.8
2015-Jul-04 09:02 083 1 gusting 5 27.2
2015-Jul-04 08:57 060 2 gusting 5 27.2
2015-Jul-04 08:52 115 1 gusting 5 26.7
2015-Jul-04 08:47 106 1 gusting 5 26.7
2015-Jul-04 08:42 112 0 gusting 2 27.2
2015-Jul-04 08:37 024 0 gusting 2 26.7
2015-Jul-04 08:32 055 0 gusting 2 26.7
2015-Jul-04 08:27 074 0 gusting 2 26.1
2015-Jul-04 08:22 061 0 gusting 3 26.1
2015-Jul-04 08:17 091 0 gusting 3 26.1
2015-Jul-04 08:12 024 0 gusting 2 26.1
2015-Jul-04 08:07 053 0 gusting 2 25.6
2015-Jul-04 08:02 314 25.6
2015-Jul-04 07:57 314 0 gusting 3 25.6
2015-Jul-04 07:52 314 0 gusting 2 25.6
2015-Jul-04 07:47 314 0 gusting 1 25.6
2015-Jul-04 07:42 314 25.0
2015-Jul-04 07:37 314 25.0
2015-Jul-04 07:32 314 25.0
2015-Jul-04 07:27 314 0 gusting 2 24.4
2015-Jul-04 07:22 314 0 gusting 2 24.4
2015-Jul-04 07:17 311 24.4
2015-Jul-04 07:12 311 24.4
2015-Jul-04 07:07 311 23.9
2015-Jul-04 07:02 311 23.9
2015-Jul-04 06:57 311 23.9
2015-Jul-04 06:52 311 23.3
2015-Jul-04 06:47 311 23.3
2015-Jul-04 06:42 311 22.8
2015-Jul-04 06:37 311 22.8
2015-Jul-04 06:32 311 22.8
2015-Jul-04 06:27 311 22.8
2015-Jul-04 06:22 311 22.2
2015-Jul-04 06:17 311 22.2
2015-Jul-04 06:12 311 22.2
2015-Jul-04 06:07 311 22.2
2015-Jul-04 06:02 311 22.2
2015-Jul-04 05:57 311 22.2
2015-Jul-04 05:52 311 21.7
2015-Jul-04 05:47 311 21.7
2015-Jul-04 05:42 311 21.7
2015-Jul-04 05:37 311 21.7
2015-Jul-04 05:32 311 21.7
2015-Jul-04 05:27 311 21.7
2015-Jul-04 05:22 311 21.7
2015-Jul-04 05:17 311 21.7
2015-Jul-04 05:12 311 21.7
2015-Jul-04 05:07 311 21.7
2015-Jul-04 05:02 311 21.7
2015-Jul-04 04:57 311 21.7
2015-Jul-04 04:52 311 22.2
2015-Jul-04 04:47 311 22.2
2015-Jul-04 04:42 311 22.2
2015-Jul-04 04:37 311 21.7
2015-Jul-04 04:32 311 21.7
2015-Jul-04 04:27 311 21.7
2015-Jul-04 04:22 311 21.7
2015-Jul-04 04:17 311 21.7
2015-Jul-04 04:12 311 21.7
2015-Jul-04 04:07 311 21.7
2015-Jul-04 04:02 311 21.7
2015-Jul-04 03:57 311 0 gusting 3 21.7
2015-Jul-04 03:52 311 0 gusting 3 21.7
2015-Jul-04 03:47 311 1 gusting 3 21.7
2015-Jul-04 03:42 311 0 gusting 2 21.7
2015-Jul-04 03:37 310 21.7
2015-Jul-04 03:32 310 21.7
2015-Jul-04 03:27 310 0 gusting 3 21.7
2015-Jul-04 03:22 309 0 gusting 2 21.7
2015-Jul-04 03:17 327 0 gusting 2 22.2
2015-Jul-04 03:12 327 0 gusting 2 22.2
2015-Jul-04 03:07 329 0 gusting 2 22.2
2015-Jul-04 03:02 328 0 gusting 2 22.2
2015-Jul-04 02:57 227 22.8
2015-Jul-04 02:52 227 22.8
2015-Jul-04 02:47 227 22.8
2015-Jul-04 02:42 227 23.3
2015-Jul-04 02:37 227 23.3
2015-Jul-04 02:32 227 23.3
2015-Jul-04 02:27 227 23.3
2015-Jul-04 02:22 227 0 gusting 3 23.3
2015-Jul-04 02:17 227 1 gusting 3 23.3
2015-Jul-04 02:12 227 1 gusting 3 23.3
2015-Jul-04 02:07 227 0 gusting 3 23.3
2015-Jul-04 02:02 227 0 gusting 0 23.3
2015-Jul-04 01:57 269 23.3
2015-Jul-04 01:52 269 23.3
2015-Jul-04 01:47 269 23.3
2015-Jul-04 01:42 269 0 gusting 4 23.3
2015-Jul-04 01:37 269 0 gusting 4 23.3
2015-Jul-04 01:32 271 1 gusting 5 23.3
2015-Jul-04 01:27 264 1 gusting 5 23.9
2015-Jul-04 01:22 207 1 gusting 5 24.4
2015-Jul-04 01:17 178 0 gusting 3 24.4
2015-Jul-04 01:12 167 0 gusting 4 24.4
2015-Jul-04 01:07 166 0 gusting 4 24.4
2015-Jul-04 01:02 161 0 gusting 4 24.4
2015-Jul-04 00:57 174 1 gusting 4 24.4
2015-Jul-04 00:52 172 0 gusting 6 24.4
2015-Jul-04 00:47 194 1 gusting 6 25.0
2015-Jul-04 00:42 157 1 gusting 6 25.0
2015-Jul-04 00:37 161 1 gusting 5 25.0
2015-Jul-04 00:32 132 0 gusting 4 25.0
2015-Jul-04 00:27 147 25.0
2015-Jul-04 00:22 047 25.0
2015-Jul-04 00:17 048 25.0
2015-Jul-04 00:12 048 0 gusting 2 25.6
2015-Jul-04 00:07 048 0 gusting 2 25.6
2015-Jul-04 00:02 047 0 gusting 3 26.1
2015-Jul-03 23:57 047 0 gusting 3 26.1
2015-Jul-03 23:52 047 1 gusting 3 26.7
2015-Jul-03 23:47 061 0 gusting 2 26.7
2015-Jul-03 23:42 063 0 gusting 2 26.7
2015-Jul-03 23:37 051 0 gusting 2 27.2
2015-Jul-03 23:32 051 27.8
2015-Jul-03 23:27 277 27.8
2015-Jul-03 23:22 283 27.8
2015-Jul-03 23:17 180 27.8
2015-Jul-03 23:12 180 0 gusting 5 27.8
2015-Jul-03 23:07 226 1 gusting 6 27.8
2015-Jul-03 23:02 236 1 gusting 7 27.8
2015-Jul-03 22:57 228 2 gusting 7 27.8
2015-Jul-03 22:52 241 2 gusting 7 27.8
2015-Jul-03 22:47 250 2 gusting 7 27.8
2015-Jul-03 22:42 233 3 gusting 11 27.8
2015-Jul-03 22:37 237 3 gusting 11 27.8
2015-Jul-03 22:32 284 4 gusting 11 27.8
2015-Jul-03 22:27 271 5 gusting 9 27.8
2015-Jul-03 22:22 250 4 gusting 8 27.8
2015-Jul-03 22:17 252 4 gusting 8 27.8
2015-Jul-03 22:12 281 4 gusting 7 27.8
2015-Jul-03 22:07 273 4 gusting 6 28.3
2015-Jul-03 22:02 271 2 gusting 6 28.3
2015-Jul-03 21:57 269 0 gusting 4 28.3
2015-Jul-03 21:52 242 28.3
2015-Jul-03 21:47 242 0 gusting 6 28.3
2015-Jul-03 21:42 258 1 gusting 9 28.3
2015-Jul-03 21:37 254 3 gusting 12 28.3
2015-Jul-03 21:32 276 5 gusting 12 28.3
2015-Jul-03 21:27 244 6 gusting 12 28.3
2015-Jul-03 21:22 257 6 gusting 12 28.3
2015-Jul-03 21:17 252 6 gusting 13 28.3
2015-Jul-03 21:12 275 7 gusting 13 28.3
2015-Jul-03 21:07 233 8 gusting 14 28.3
2015-Jul-03 21:02 272 9 gusting 14 28.3
2015-Jul-03 20:57 240 9 gusting 14 28.9
2015-Jul-03 20:52 277 9 gusting 14 28.9
2015-Jul-03 20:47 217 8 gusting 14 28.9
2015-Jul-03 20:42 262 6 gusting 14 28.9
2015-Jul-03 20:37 286 6 gusting 14 28.9
2015-Jul-03 20:32 262 6 gusting 14 29.4
2015-Jul-03 20:27 239 7 gusting 16 29.4
2015-Jul-03 20:22 266 9 gusting 16 29.4
2015-Jul-03 20:17 265 9 gusting 14 29.4
2015-Jul-03 20:12 267 9 gusting 14 29.4
2015-Jul-03 20:07 259 7 gusting 12 30.0
2015-Jul-03 20:02 261 7 gusting 13 30.0
2015-Jul-03 19:57 279 6 gusting 13 30.6
2015-Jul-03 19:52 265 6 gusting 13 31.1
2015-Jul-03 19:47 263 6 gusting 13 31.1
2015-Jul-03 19:42 253 7 gusting 13 31.7
2015-Jul-03 19:37 213 6 gusting 13 31.7
2015-Jul-03 19:32 250 5 gusting 9 32.2
2015-Jul-03 19:27 217 4 gusting 11 32.8
2015-Jul-03 19:22 255 5 gusting 11 32.8
2015-Jul-03 19:17 244 6 gusting 13 32.8
2015-Jul-03 19:12 271 6 gusting 13 32.8
2015-Jul-03 19:07 278 6 gusting 13 32.8
2015-Jul-03 19:02 220 6 gusting 13 33.3